This is the latest recevied weather packets stored in our database for station/object KC3ROS. If no packets are shown the sender has not sent any weather packets the latest 10 day(s).
| Time | Temp. | Humidity | Pressure | Rain* | Wind** | Luminosity | Snow |
|---|---|---|---|---|---|---|---|
| 1777849142 | 13.33° C | 45% | 1012.3 hPa | 0 mm | - | 47 W/m² | - |
| 1777848838 | 13.89° C | 44% | 1012.3 hPa | 0 mm | - | 55 W/m² | - |
| 1777848534 | 13.89° C | 45% | 1012.4 hPa | 0 mm | - | 91 W/m² | - |
| 1777848231 | 13.89° C | 45% | 1012.2 hPa | 0 mm | - | 83 W/m² | - |
| 1777847929 | 13.89° C | 43% | 1012.4 hPa | 0 mm | - | 81 W/m² | - |
| 1777847627 | 13.89° C | 42% | 1012.5 hPa | 0 mm | - | 82 W/m² | - |
| 1777847322 | 13.89° C | 42% | 1012.5 hPa | 0 mm | - | 77 W/m² | - |
| 1777847021 | 14.44° C | 45% | 1012.3 hPa | 0 mm | - | 106 W/m² | - |
| 1777846718 | 13.89° C | 40% | 1012.4 hPa | 0 mm | - | 99 W/m² | - |
| 1777846417 | 13.89° C | 43% | 1012.3 hPa | 0 mm | - | 93 W/m² | - |
| 1777846113 | 13.89° C | 43% | 1012.3 hPa | 0 mm | - | 73 W/m² | - |
| 1777845810 | 13.89° C | 42% | 1012.4 hPa | 0 mm | - | 69 W/m² | - |
| 1777845507 | 14.44° C | 40% | 1012.2 hPa | 0 mm | - | 89 W/m² | - |
| 1777845204 | 15° C | 38% | 1012.3 hPa | 0 mm | - | 284 W/m² | - |
| 1777844902 | 15° C | 38% | 1012.4 hPa | 0 mm | - | 326 W/m² | - |
| 1777844598 | 13.89° C | 43% | 1012.5 hPa | 0 mm | - | 311 W/m² | - |
| 1777844295 | 13.89° C | 40% | 1012.3 hPa | 0 mm | - | 88 W/m² | - |
| 1777843993 | 15° C | 38% | 1012.3 hPa | 0 mm | - | 88 W/m² | - |
| 1777843689 | 15.56° C | 37% | 1012.1 hPa | 0 mm | - | 349 W/m² | - |
| 1777843388 | 16.11° C | 40% | 1012.2 hPa | 0 mm | - | 363 W/m² | - |
| 1777843085 | 15° C | 37% | 1012.1 hPa | 0 mm | - | 412 W/m² | - |
| 1777842782 | 15° C | 41% | 1012.2 hPa | 0 mm | - | 420 W/m² | - |
| 1777842482 | 15.56° C | 43% | 1012.3 hPa | 0 mm | - | 444 W/m² | - |
| 1777842180 | 13.89° C | 43% | 1012.4 hPa | 0 mm | - | 473 W/m² | - |
| 1777841874 | 13.89° C | 39% | 1012.3 hPa | 0 mm | - | 433 W/m² | - |
* Rain latest hour (hover to see other rain measurements)
** Current wind speed in m/s (hover to see current wind gust speed)